Salamanca, Spain

3:10 PM CEST on March 28, 2017 (GMT +0200)
Salamanca

Weather History for LESA - May, 2013

Change the Weather History Date:

Saturday, May 25, 2013

  Actual Average Record
Temperature  
Mean Temperature 56 °F -  
Max Temperature 73 °F - - ()
Min Temperature 39 °F - - ()
Degree Days  
Heating Degree Days 9    
Growing Degree Days 6 (Base 50)    
Moisture  
Dew Point 35 °F    
Average Humidity 47    
Maximum Humidity 81    
Minimum Humidity 17    
Precipitation  
Precipitation 0.00 in 0.05 in - ()
Sea Level Pressure  
Sea Level Pressure 30.09 in    
Wind  
Wind Speed 4 mph ()    
Max Wind Speed 10 mph    
Max Gust Speed -    
Visibility 7.2 miles    
Events      
T = Trace of Precipitation, MM = Missing Value Source: Averaged Metar Reports

Daily Weather History Graph

Daily Weather History Graph

Search for Another Location

Airport or City:

Trip Planner

Search our weather history database for the weather conditions in past years. The results will help you decide how hot, cold, wet, or windy it might be!

Date:

Astronomy

May. 25, 2013 Rise Set
Actual Time 6:56 AM CEST 9:42 PM CEST
Civil Twilight 6:23 AM CEST 10:14 PM CEST
Nautical Twilight 5:43 AM CEST 10:55 PM CEST
Astronomical Twilight 4:57 AM CEST 11:41 PM CEST
Moon 10:15 PM CEST (5/25) 7:09 AM CEST (5/25)
Length of Visible Light 15h 50m
Length of Day
14h 46m
Full, 100% of the Moon is Illuminated
May 25
Full
May 31
Last Quarter
Jun 8
New
Jun 16
First Quarter
Jun 23
Full

Hourly Weather History & Observations

Time (CEST) Temp. Windchill Dew Point Humidity Pressure Visibility Wind Dir Wind Speed Gust Speed Precip Events Conditions
12:00 AM 51.8 °F - 42.8 °F 71% 30.09 in - Calm Calm - N/A   Clear
12:30 AM 48.2 °F - 39.2 °F 71% 30.09 in - Calm Calm - N/A   Clear
1:00 AM 50.0 °F - 35.6 °F 58% 30.09 in - NNE 3.5 mph - N/A   Clear
1:30 AM 50.0 °F - 33.8 °F 54% 30.09 in - NE 6.9 mph - N/A   Clear
2:00 AM 53 °F - 26 °F 23%  in 12 mi ENE 10.4 mph - -  
2:00 AM 53.6 °F - 26.6 °F 35% 30.09 in - ENE 9.2 mph - N/A   Clear
2:30 AM 53.6 °F - 26.6 °F 35% 30.09 in - NE 8.1 mph - N/A   Clear
3:00 AM 50.0 °F - 30.2 °F 47% 30.09 in - Variable 2.3 mph - N/A   Clear
3:30 AM 50.0 °F - 30.2 °F 47% 30.09 in - Variable 1.2 mph - N/A   Clear
4:00 AM 48.2 °F - 32.0 °F 54% 30.09 in - Variable 2.3 mph - N/A   Clear
4:30 AM 46.4 °F - 32.0 °F 57% 30.09 in - Variable 2.3 mph - N/A   Clear
5:00 AM 42.8 °F 41.1 °F 33.8 °F 70% 30.09 in - SSE 3.5 mph - N/A   Clear
5:30 AM 42.8 °F - 33.8 °F 70% 30.09 in - Calm Calm - N/A   Clear
6:00 AM 42.8 °F - 33.8 °F 70% 30.09 in - Variable 2.3 mph - N/A   Clear
6:30 AM 41.0 °F 39.0 °F 35.6 °F 81% 30.09 in - ESE 3.5 mph - N/A   Clear
7:00 AM 41.0 °F - 35.6 °F 81% 30.09 in - Variable 2.3 mph - N/A   Clear
7:30 AM 41.0 °F 39.0 °F 35.6 °F 81% 30.09 in - ESE 3.5 mph - N/A   Clear
8:00 AM 46 °F - 37 °F 62%  in 12 mi East 6.9 mph - -  
8:00 AM 44.6 °F 41.4 °F 37.4 °F 76% 30.09 in - East 5.8 mph - N/A   Clear
8:30 AM 46.4 °F 43.5 °F 37.4 °F 71% 30.12 in - East 5.8 mph - N/A   Clear
9:00 AM 48.2 °F - 37.4 °F 66% 30.12 in - East 8.1 mph - N/A   Clear
9:30 AM 50.0 °F - 39.2 °F 66% 30.12 in - ENE 8.1 mph - N/A   Clear
10:00 AM 51.8 °F - 37.4 °F 58% 30.12 in - ENE 10.4 mph - N/A   Clear
10:30 AM 53.6 °F - 37.4 °F 54% 30.12 in - ENE 10.4 mph - N/A   Clear
11:00 AM 55.4 °F - 37.4 °F 51% 30.12 in - East 9.2 mph - N/A   Clear
11:30 AM 57.2 °F - 33.8 °F 41% 30.12 in - ENE 9.2 mph - N/A   Clear
12:00 PM 57.2 °F - 32.0 °F 38% 30.12 in - ENE 10.4 mph - N/A   Clear
12:30 PM 60.8 °F - 33.8 °F 36% 30.12 in - East 9.2 mph - N/A   Clear
1:00 PM 60.8 °F - 33.8 °F 36% 30.12 in - ENE 6.9 mph - N/A   Clear
1:30 PM 62.6 °F - 32.0 °F 32% 30.12 in - East 8.1 mph - N/A   Clear
2:00 PM 66 °F - 35 °F 21%  in 12 mi ENE 8.1 mph - -   Scattered Clouds
2:00 PM 64.4 °F - 32.0 °F 30% 30.12 in 6.2 mi ENE 6.9 mph - N/A   Partly Cloudy
2:30 PM 64.4 °F - 32.0 °F 30% 30.09 in 6.2 mi ESE 5.8 mph - N/A   Partly Cloudy
3:00 PM 66.2 °F - 39.2 °F 37% 30.09 in 6.2 mi Variable 4.6 mph - N/A   Partly Cloudy
3:30 PM 66.2 °F - 32.0 °F 28% 30.09 in 6.2 mi Variable 3.5 mph - N/A   Partly Cloudy
4:00 PM 68.0 °F - 35.6 °F 30% 30.09 in 6.2 mi Variable 3.5 mph - N/A   Partly Cloudy
4:30 PM 68.0 °F - 35.6 °F 30% 30.09 in 6.2 mi NE 4.6 mph - N/A   Partly Cloudy
5:00 PM 69.8 °F - 39.2 °F 33% 30.06 in 6.2 mi Variable 1.2 mph - N/A   Partly Cloudy
5:30 PM 69.8 °F - 35.6 °F 28% 30.06 in 6.2 mi Variable 4.6 mph - N/A   Partly Cloudy
6:00 PM 69.8 °F - 37.4 °F 31% 30.06 in 6.2 mi NE 4.6 mph - N/A   Partly Cloudy
6:30 PM 69.8 °F - 37.4 °F 31% 30.06 in 6.2 mi Variable 2.3 mph - N/A   Partly Cloudy
7:00 PM 69.8 °F - 35.6 °F 28% 30.04 in 6.2 mi NNW 4.6 mph - N/A   Partly Cloudy
7:30 PM 69.8 °F - 39.2 °F 33% 30.04 in 6.2 mi NNE 3.5 mph - N/A   Partly Cloudy
8:00 PM 72 °F - 37 °F 17%  in 12 mi NNE 2.3 mph - -   Scattered Clouds
8:00 PM 69.8 °F - 35.6 °F 28% 30.04 in 6.2 mi Variable 1.2 mph - N/A   Partly Cloudy
8:30 PM 68.0 °F - 37.4 °F 33% 30.04 in 6.2 mi Variable 2.3 mph - N/A   Partly Cloudy
9:00 PM 66.2 °F - 35.6 °F 32% 30.04 in 6.2 mi ENE 5.8 mph - N/A   Partly Cloudy
9:30 PM 64.4 °F - 37.4 °F 37% 30.04 in 6.2 mi East 6.9 mph - N/A   Partly Cloudy
10:00 PM 60.8 °F - 39.2 °F 45% 30.04 in 6.2 mi East 5.8 mph - N/A   Partly Cloudy
10:30 PM 59.0 °F - 41.0 °F 51% 30.06 in 6.2 mi East 6.9 mph - N/A   Partly Cloudy
11:00 PM 57.2 °F - 41.0 °F 55% 30.06 in 6.2 mi East 8.1 mph - N/A   Partly Cloudy
11:30 PM 55.4 °F - 39.2 °F 54% 30.06 in 6.2 mi East 6.9 mph - N/A   Partly Cloudy